SWA213 KJFK-KBOS

Flight info

Callsign SWA213
Flight time 0h 42m
Altitude 21000
Route MERIT ROBUC3
Aircraft B738/M-SDE2E3FGHIRWXY/LB1

Departure

Time 2026-05-04 20:53
Airport John F. Kennedy International Airport (KJFK)

Arrival

Time 2026-05-04 21:35
Airport Boston Logan International Airport (KBOS)
Time Latitude Longitude Altitude Speed Heading
2026-05-04 20:36 40.64523 -73.77237 20 ft 0 kts
2026-05-04 20:43 40.64512 -73.77237 21 ft 2 kts
2026-05-04 20:44 40.64496 -73.77239 20 ft 2 kts
2026-05-04 20:44 40.64480 -73.77245 21 ft 2 kts 42°
2026-05-04 20:44 40.64473 -73.77262 21 ft 1 kts 88°
2026-05-04 20:44 40.64473 -73.77267 21 ft 0 kts 89°
2026-05-04 20:49 40.64458 -73.77198 21 ft 18 kts 117°
2026-05-04 20:49 40.64439 -73.77024 19 ft 20 kts 59°
2026-05-04 20:49 40.64563 -73.76988 19 ft 18 kts
2026-05-04 20:49 40.64674 -73.77000 20 ft 18 kts 343°
2026-05-04 20:50 40.64802 -73.77085 20 ft 22 kts
2026-05-04 20:50 40.64898 -73.76941 22 ft 21 kts 56°
2026-05-04 20:50 40.64980 -73.76786 23 ft 20 kts 58°
2026-05-04 20:50 40.64941 -73.76628 20 ft 18 kts 118°
2026-05-04 20:51 40.64919 -73.76577 20 ft 0 kts 120°
2026-05-04 20:51 40.64915 -73.76567 21 ft 6 kts 120°
2026-05-04 20:52 40.64862 -73.76493 20 ft 14 kts 176°
2026-05-04 20:52 40.64819 -73.76517 21 ft 0 kts 210°
2026-05-04 20:52 40.64626 -73.76663 19 ft 78 kts 210°
2026-05-04 20:53 40.63925 -73.77222 108 ft 149 kts 208°
2026-05-04 20:53 40.63006 -73.78071 796 ft 177 kts 211°
2026-05-04 20:53 40.61873 -73.78837 1918 ft 191 kts 191°
2026-05-04 20:53 40.60590 -73.78083 2264 ft 241 kts 127°
2026-05-04 20:54 40.60064 -73.75899 2909 ft 265 kts 94°
2026-05-04 20:54 40.60351 -73.73428 3558 ft 279 kts 65°
2026-05-04 20:54 40.61474 -73.71434 4661 ft 272 kts 36°
2026-05-04 20:54 40.63061 -73.70027 5502 ft 274 kts 29°
2026-05-04 20:55 40.64641 -73.68699 6622 ft 266 kts 28°
2026-05-04 20:55 40.66195 -73.67388 7547 ft 266 kts 28°
2026-05-04 20:55 40.67781 -73.66074 8280 ft 273 kts 28°
2026-05-04 20:55 40.69425 -73.64728 8890 ft 287 kts 26°
2026-05-04 20:56 40.71157 -73.63370 9801 ft 283 kts 28°
2026-05-04 20:56 40.72810 -73.61941 10637 ft 286 kts 29°
2026-05-04 20:56 40.74596 -73.60802 11320 ft 285 kts
2026-05-04 20:56 40.76519 -73.60452 12223 ft 274 kts 353°
2026-05-04 20:57 40.78414 -73.60565 13025 ft 275 kts 350°
2026-05-04 20:57 40.80340 -73.60831 13471 ft 289 kts 347°
2026-05-04 20:57 40.82340 -73.61221 14254 ft 287 kts 345°
2026-05-04 20:57 40.84298 -73.61547 15197 ft 285 kts 353°
2026-05-04 20:58 40.86302 -73.61263 15834 ft 299 kts 11°
2026-05-04 20:58 40.88198 -73.60132 16727 ft 300 kts 30°
2026-05-04 20:58 40.89804 -73.58358 17544 ft 304 kts 36°
2026-05-04 20:58 40.91395 -73.56376 17763 ft 326 kts 41°
2026-05-04 20:59 40.93029 -73.54174 17950 ft 345 kts 40°
2026-05-04 20:59 40.94837 -73.51947 18109 ft 364 kts 37°
2026-05-04 20:59 40.96834 -73.49763 18257 ft 381 kts 33°
2026-05-04 20:59 40.99004 -73.47616 18384 ft 397 kts 31°
2026-05-04 21:00 41.01316 -73.45486 18504 ft 413 kts 30°
2026-05-04 21:00 41.03741 -73.43347 18795 ft 422 kts 29°
2026-05-04 21:00 41.06211 -73.41214 19294 ft 425 kts 28°
2026-05-04 21:00 41.08698 -73.39084 19900 ft 426 kts 28°
2026-05-04 21:01 41.11126 -73.36805 20508 ft 431 kts 37°
2026-05-04 21:01 41.13225 -73.33944 20903 ft 439 kts 46°
2026-05-04 21:01 41.15044 -73.30603 20898 ft 454 kts 55°
2026-05-04 21:01 41.16499 -73.26802 20905 ft 468 kts 63°
2026-05-04 21:02 41.17780 -73.22799 20907 ft 476 kts 64°
2026-05-04 21:02 41.19021 -73.18727 20890 ft 475 kts 65°
2026-05-04 21:02 41.20247 -73.14658 20887 ft 473 kts 65°
2026-05-04 21:02 41.21475 -73.10607 20888 ft 472 kts 65°
2026-05-04 21:03 41.22711 -73.06574 20892 ft 471 kts 64°
2026-05-04 21:03 41.23960 -73.02544 20892 ft 471 kts 64°
2026-05-04 21:03 41.25213 -72.98523 20890 ft 472 kts 64°
2026-05-04 21:03 41.26472 -72.94496 20884 ft 472 kts 64°
2026-05-04 21:04 41.27732 -72.90467 20888 ft 472 kts 64°
2026-05-04 21:04 41.28988 -72.86442 20895 ft 472 kts 64°
2026-05-04 21:04 41.30229 -72.82462 20895 ft 471 kts 64°
2026-05-04 21:04 41.31482 -72.78433 20895 ft 471 kts 64°
2026-05-04 21:05 41.32730 -72.74413 20903 ft 471 kts 64°
2026-05-04 21:05 41.33979 -72.70381 20896 ft 471 kts 64°
2026-05-04 21:05 41.35226 -72.66352 20899 ft 470 kts 64°
2026-05-04 21:05 41.36466 -72.62337 20901 ft 470 kts 64°
2026-05-04 21:06 41.37707 -72.58314 20900 ft 469 kts 64°
2026-05-04 21:06 41.38943 -72.54301 20898 ft 469 kts 64°
2026-05-04 21:06 41.40184 -72.50266 20895 ft 469 kts 64°
2026-05-04 21:06 41.41419 -72.46242 20901 ft 469 kts 64°
2026-05-04 21:07 41.42649 -72.42230 20904 ft 469 kts 64°
2026-05-04 21:07 41.43883 -72.38201 20902 ft 469 kts 64°
2026-05-04 21:07 41.45113 -72.34176 20898 ft 469 kts 64°
2026-05-04 21:07 41.46341 -72.30153 20897 ft 469 kts 65°
2026-05-04 21:08 41.47571 -72.26118 20910 ft 469 kts 65°
2026-05-04 21:08 41.48793 -72.22102 20914 ft 469 kts 65°
2026-05-04 21:08 41.50018 -72.18067 20912 ft 469 kts 65°
2026-05-04 21:08 41.51232 -72.14068 20909 ft 469 kts 65°
2026-05-04 21:09 41.52456 -72.10026 20909 ft 469 kts 65°
2026-05-04 21:09 41.53678 -72.05983 20914 ft 469 kts 65°
2026-05-04 21:09 41.54901 -72.01935 20910 ft 469 kts 65°
2026-05-04 21:09 41.56120 -71.97889 20906 ft 469 kts 65°
2026-05-04 21:10 41.57339 -71.93839 20919 ft 469 kts 65°
2026-05-04 21:10 41.58554 -71.89798 20917 ft 469 kts 65°
2026-05-04 21:10 41.59765 -71.85760 20900 ft 465 kts 65°
2026-05-04 21:10 41.60926 -71.81876 20791 ft 447 kts 65°
2026-05-04 21:11 41.62057 -71.78083 20682 ft 431 kts 65°
2026-05-04 21:11 41.63143 -71.74442 20558 ft 411 kts 65°
2026-05-04 21:11 41.64177 -71.70973 20423 ft 392 kts 64°
2026-05-04 21:11 41.65165 -71.67661 20306 ft 374 kts 64°
2026-05-04 21:12 41.66108 -71.64499 20198 ft 358 kts 64°
2026-05-04 21:12 41.67008 -71.61470 20095 ft 342 kts 64°
2026-05-04 21:12 41.67865 -71.58582 19992 ft 327 kts 64°
2026-05-04 21:12 41.68687 -71.55792 19719 ft 319 kts 64°
2026-05-04 21:13 41.69490 -71.53051 19284 ft 314 kts 64°
2026-05-04 21:13 41.70284 -71.50338 18679 ft 313 kts 65°
2026-05-04 21:13 41.71077 -71.47625 17998 ft 313 kts 65°
2026-05-04 21:13 41.71868 -71.44914 17287 ft 312 kts 65°
2026-05-04 21:14 41.72701 -71.42248 16646 ft 307 kts 59°
2026-05-04 21:14 41.73730 -71.39767 16034 ft 303 kts 56°
2026-05-04 21:14 41.74808 -71.37359 15429 ft 300 kts 55°
2026-05-04 21:14 41.75867 -71.34966 14824 ft 298 kts 56°
2026-05-04 21:15 41.76903 -71.32577 14232 ft 296 kts 57°
2026-05-04 21:15 41.77925 -71.30195 13658 ft 294 kts 57°
2026-05-04 21:15 41.78934 -71.27832 13066 ft 290 kts 57°
2026-05-04 21:15 41.79930 -71.25493 12443 ft 288 kts 56°
2026-05-04 21:16 41.80916 -71.23177 11878 ft 284 kts 56°
2026-05-04 21:16 41.81892 -71.20886 11332 ft 281 kts 56°
2026-05-04 21:16 41.82850 -71.18634 11177 ft 284 kts 56°
2026-05-04 21:16 41.83824 -71.16344 11091 ft 283 kts 56°
2026-05-04 21:17 41.84798 -71.14049 11068 ft 281 kts 56°
2026-05-04 21:17 41.85766 -71.11772 11058 ft 281 kts 56°
2026-05-04 21:17 41.86744 -71.09505 11068 ft 282 kts 56°
2026-05-04 21:17 41.87729 -71.07229 11075 ft 282 kts 56°
2026-05-04 21:18 41.88715 -71.04953 11064 ft 282 kts 56°
2026-05-04 21:18 41.89698 -71.02679 11062 ft 282 kts 56°
2026-05-04 21:18 41.90683 -71.00399 11036 ft 283 kts 56°
2026-05-04 21:18 41.91562 -70.98004 10544 ft 291 kts 72°
2026-05-04 21:19 41.91729 -70.95311 10128 ft 287 kts 82°
2026-05-04 21:19 41.92359 -70.92881 9650 ft 270 kts 48°
2026-05-04 21:19 41.93730 -70.91315 9188 ft 252 kts 19°
2026-05-04 21:19 41.95375 -70.90842 8717 ft 238 kts 352°
2026-05-04 21:20 41.97013 -70.91057 8274 ft 236 kts 347°
2026-05-04 21:20 41.98623 -70.91426 8096 ft 233 kts 335°
2026-05-04 21:20 42.00070 -70.92339 8070 ft 229 kts 327°
2026-05-04 21:20 42.01468 -70.93362 8061 ft 228 kts 326°
2026-05-04 21:21 42.02859 -70.94392 8057 ft 229 kts 326°
2026-05-04 21:21 42.04251 -70.95424 8062 ft 229 kts 326°
2026-05-04 21:21 42.05642 -70.96453 8049 ft 228 kts 326°
2026-05-04 21:21 42.07029 -70.97484 8019 ft 227 kts 326°
2026-05-04 21:22 42.08411 -70.98512 8023 ft 228 kts 326°
2026-05-04 21:22 42.09804 -70.99547 8025 ft 229 kts 326°
2026-05-04 21:22 42.11204 -71.00581 8010 ft 230 kts 326°
2026-05-04 21:22 42.12607 -71.01619 8023 ft 230 kts 326°
2026-05-04 21:23 42.14004 -71.02653 8005 ft 229 kts 326°
2026-05-04 21:23 42.15398 -71.03686 8013 ft 229 kts 326°
2026-05-04 21:23 42.16801 -71.04722 8020 ft 231 kts 326°
2026-05-04 21:23 42.18213 -71.05764 8018 ft 231 kts 326°
2026-05-04 21:24 42.19619 -71.06802 8015 ft 230 kts 326°
2026-05-04 21:24 42.21023 -71.07838 8009 ft 230 kts 326°
2026-05-04 21:24 42.22428 -71.08874 8009 ft 230 kts 326°
2026-05-04 21:24 42.23829 -71.09908 8010 ft 229 kts 326°
2026-05-04 21:25 42.25350 -71.10538 7959 ft 240 kts 349°
2026-05-04 21:25 42.27070 -71.10552 7492 ft 250 kts 355°
2026-05-04 21:25 42.28816 -71.10481 7038 ft 251 kts 355°
2026-05-04 21:25 42.30581 -71.10396 6580 ft 249 kts 356°
2026-05-04 21:26 42.32279 -71.10312 6158 ft 247 kts 356°
2026-05-04 21:26 42.34004 -71.10227 6046 ft 251 kts 356°
2026-05-04 21:26 42.35724 -71.10146 6006 ft 250 kts 356°
2026-05-04 21:26 42.37446 -71.10061 6000 ft 246 kts 356°
2026-05-04 21:27 42.39154 -71.09978 6001 ft 246 kts 356°
2026-05-04 21:27 42.40874 -71.09894 5938 ft 249 kts 356°
2026-05-04 21:27 42.42629 -71.09815 5437 ft 254 kts 356°
2026-05-04 21:27 42.44387 -71.09735 4993 ft 250 kts 356°
2026-05-04 21:28 42.46103 -71.09659 4525 ft 244 kts 356°
2026-05-04 21:28 42.47788 -71.09580 4080 ft 241 kts 356°
2026-05-04 21:28 42.49461 -71.09505 3616 ft 239 kts 356°
2026-05-04 21:28 42.51114 -71.09432 3169 ft 235 kts 356°
2026-05-04 21:29 42.52736 -71.09108 2672 ft 241 kts 18°
2026-05-04 21:29 42.54064 -71.07728 2253 ft 244 kts 52°
2026-05-04 21:29 42.54649 -71.05672 2012 ft 231 kts 89°
2026-05-04 21:29 42.54492 -71.03634 1985 ft 209 kts 104°
2026-05-04 21:30 42.54193 -71.01716 2001 ft 207 kts 105°
2026-05-04 21:30 42.53881 -70.99805 1983 ft 207 kts 105°
2026-05-04 21:30 42.53570 -70.97888 1980 ft 209 kts 106°
2026-05-04 21:30 42.52992 -70.96151 1959 ft 196 kts 141°
2026-05-04 21:31 42.50590 -70.94924 1981 ft 188 kts 175°
2026-05-04 21:31 42.49326 -70.94683 1971 ft 176 kts 192°
2026-05-04 21:31 42.48556 -70.94925 2015 ft 170 kts 202°
2026-05-04 21:32 42.47382 -70.95291 2004 ft 175 kts 199°
2026-05-04 21:32 42.46218 -70.95786 1845 ft 175 kts 205°
2026-05-04 21:32 42.45076 -70.96346 1612 ft 172 kts 205°
2026-05-04 21:32 42.43975 -70.96883 1385 ft 165 kts 205°
2026-05-04 21:33 42.42918 -70.97389 1168 ft 156 kts 204°
2026-05-04 21:33 42.41933 -70.97867 973 ft 144 kts 207°
2026-05-04 21:33 42.41025 -70.98308 799 ft 131 kts 207°
2026-05-04 21:33 42.40179 -70.98720 629 ft 127 kts 206°
2026-05-04 21:34 42.39325 -70.99134 483 ft 134 kts 205°
2026-05-04 21:34 42.38430 -70.99569 286 ft 136 kts 204°
2026-05-04 21:34 42.37549 -70.99991 99 ft 130 kts 204°
2026-05-04 21:34 42.36731 -71.00395 28 ft 119 kts 202°
2026-05-04 21:35 42.36042 -71.00733 21 ft 93 kts 198°
2026-05-04 21:35 42.35603 -71.00939 23 ft 51 kts 200°
2026-05-04 21:35 42.35422 -71.01031 28 ft 18 kts 201°
2026-05-04 21:35 42.35398 -71.01165 29 ft 11 kts 289°
2026-05-04 21:36 42.35403 -71.01185 27 ft 0 kts 289°
2026-05-04 21:36 42.35404 -71.01188 27 ft 2 kts 289°
2026-05-04 21:36 42.35417 -71.01239 25 ft 10 kts 289°
2026-05-04 21:37 42.35446 -71.01332 27 ft 13 kts 306°
2026-05-04 21:37 42.35547 -71.01337 27 ft 18 kts 17°
2026-05-04 21:37 42.35668 -71.01302 25 ft 6 kts 14°
2026-05-04 21:37 42.35713 -71.01282 26 ft 1 kts 18°
2026-05-04 21:38 42.35723 -71.01278 23 ft 2 kts 18°
2026-05-04 21:38 42.35747 -71.01267 22 ft 7 kts 18°
2026-05-04 21:38 42.35837 -71.01224 22 ft 19 kts 21°
2026-05-04 21:38 42.35983 -71.01151 22 ft 23 kts 20°
2026-05-04 21:39 42.36129 -71.01080 22 ft 18 kts 20°
2026-05-04 21:39 42.36215 -71.01058 25 ft 13 kts 338°
2026-05-04 21:39 42.36244 -71.01098 23 ft 0 kts 298°
2026-05-04 21:41 42.36246 -71.01102 23 ft 3 kts 297°
2026-05-04 21:41 42.36276 -71.01183 24 ft 16 kts 300°
2026-05-04 21:41 42.36346 -71.01339 22 ft 15 kts 301°
2026-05-04 21:41 42.36378 -71.01419 21 ft 14 kts 294°
2026-05-04 21:42 42.36430 -71.01540 21 ft 15 kts 301°
2026-05-04 21:42 42.36470 -71.01662 21 ft 14 kts 259°
2026-05-04 21:42 42.36395 -71.01671 21 ft 8 kts 176°
2026-05-04 21:42 42.36376 -71.01672 22 ft 0 kts 188°